Location: Unspecified
(0.0000°N, 0.0000°E)
Time: 06:00:52
(UTC+00:00)

Vanguard 2 - Pass Details

Date: 19 September 2019
Orbit: 554 x 2937 km, 32.9° (Epoch: 14 October)

Event Time Altitude Azimuth Distance (km) Brightness Sun altitude
Rises 17:54:08 0° 212° (SSW) 4,907 12.1 -0.1°
Reaches altitude 10° 18:03:18 10° 171° (S) 4,743 11.5 -2.4°
Maximum altitude 18:04:26 10° 166° (SSE) 4,820 11.4 -2.7°
Drops below altitude 10° 18:05:37 10° 161° (SSE) 4,918 11.4 -3.0°
Sets 18:17:46 0° 123° (ESE) 6,597 11.8 -6.0°
